STARLINK-32141, 60290

Orbit data source: Space-Track

STARLINK-32141, 60290 is a payload satellite owned by SpaceX/Seattle (US) in LEO that was launched on Sun, 28 Jul 2024 UTC via an FALCON 9 launch vehicle from the Air Force Eastern Test Range (AFETR). Payload-class satellites include a variety of spacecraft equipped with specific instruments for various scientific and technological missions. These include communications satellites like Starlink; space stations such as the ISS; scientific satellites like the Hubble; Earth observation satellites from companies like Planet Labs, Umbra, and HawkEye 360; GPS; miniature CubeSats for education and research; and military/defense satellites.

Loading next visibility...
Identifier
60290, 2024-132N
Orbit
LEO
Last TLE update
2 days ago
Origin
Manufacturer
SpaceX/Seattle
Mission
Operational spacecraft
Bus & Motor
STARLINK V2M, Unknown motor
Mass
730 kg wet, ~700 kg dry
Launch date (UTC)
2024-07-28 (9 months ago)
Launch vehicle
FALCON 9
Launch site
Air Force Eastern Test Range (AFETR)
Object type
Payload
Rocket body
Debris
Shape & HBR
Unknown
Radar Cross Section
Large (>1 m²)

Expand to show TLE details & history

TLE from 2 days ago
0 STARLINK-32141
1 60290U 24132N   25118.17134093  .00002351  00000-0  91471-4 0  9991
2 60290  53.1601  77.9415 0001146  67.6711 292.4411 15.30202130 43252
Epoch: 2025-04-28T04:06Z
Definitive object data (Epoch: 2025-04-28T04:06:43.856Z)
Latitude
-0.00003°
Longitude
159.86956°
Altitude
475.809 km
Speed
7.629 km/s
True Right ascension
05h 11m 45s
True Declination
0° 00' 00"
Sunlit
Object was in daylight at TLE epoch
Visualization TLE readout
Latitude
5.38569°
Longitude
155.39451°
Altitude
475.227 km
Speed
7.63 km/s
Apparent Right ascension
01h 50m 57s
Apparent Declination
-37° 54' 41"
Sunlit
Object is in daylight
Visualization observer readout
Local Sidereal Time
07:34:14
Azimuth
237.146° WSW
Elevation
-20.498°
Doppler factor
1
Orbital elements
Apogee altitude
476.251 km
Perigee altitude
474.68 km
Semi-major axis
6,853.602 km
Eccentricity
0.0001146
Inclination
53.1601°
RAAN
77.9415°
Arg. of periapsis
67.6711°
True anomaly
292.42896°
Mean anomaly
292.4411°
Eccentric anomaly
292.43503°
Mean motion
3.82529 °/min
BSTAR
0.000091471
Orbital period
94.11 mins
Loading maneuver chart data...
Loading SW <> Apogee altitude chart data...
Loading historical data...
Loading historical data...
Loading historical data...
Loading historical data...
Loading historical data...
Loading historical data...
Loading historical data...

STARLINK-32141 Visibility forecast

Observer location: undefined°, undefined°

Span
Click to sort rows by Start time (UTC) header in descending order
Start Az.
Max El. time (UTC)
Max El. Az.
Max El.
End time (UTC)
End Az.
6 mins2025-04-30 00:12:56.621Z258.018° W2025-04-30 00:15:56.621Z348.62° N33.484°2025-04-30 00:18:56.621Z39.113° NE
4 mins2025-04-30 05:10:56.621Z352.186° N2025-04-30 05:11:56.621Z15.389° NNE22.232°2025-04-30 05:14:56.621Z79.351° E
6 mins2025-04-30 06:47:56.621Z295.049° NW2025-04-30 06:50:56.621Z195.953° SSW35.611°2025-04-30 06:53:56.621Z149.338° SSE
5 mins2025-04-30 23:43:56.621Z257.104° W2025-04-30 23:45:56.621Z323.47° NNW37.694°2025-04-30 23:48:56.621Z38.812° NE
|